[[{"header":{"parameterUnit":"m.s-1","parameterCategory":1,"la1":30.2991,"la2":30.254,"lo1":-89.0895,"lo2":-89.0444,"dy":0.0017,"dx":0.0017,"nx":28,"ny":28,"refTime":"2025-01-27T03:00:00:Z","depth":0,"parameterNumber":2,"parameterNumberName":"U-component_of_WINDS"},"data":[0,0,0,0,0,0,0,0,0,0,0,0,0,0,0,0,0,0,0,0,0,0,0,0,0,0,0,0,0,0,0,0,0,0,0,0,0,0,0,0,0,0,0,0,0,0,0,0,0,0,0,0,0,0,0,0,0,0,0.8117,0.8117,0,0.8112,0.8112,0.8112,0.8095,0.8094,0.8094,0.8093,0.809,0.809,0.809,0,0,0,0,0,0,0,0,0,0,0,0,0,0.8115,0.8115,0.8117,0.8117,0.8117,0.8112,0.8112,0.8112,0.8095,0.8094,0.8094,0.8093,0.809,0.809,0.809,0,0,0,0,0,0,0,0,0,0,0,0,0,0.8113,0.8115,0.8117,0.8108,0.8107,0.8112,0.8112,0.8112,0.8095,0.8094,0.8094,0.8093,0.8089,0.809,0.809,0.8104,0,0,0.8091,0.8092,0,0,0,0,0,0,0,0,0.8113,0.8113,0.8109,0.8108,0.8107,0.8103,0.811,0.8109,0.8095,0.8099,0.8093,0.8093,0.8095,0.8095,0.8095,0.8104,0.8104,0.8091,0.8092,0.8092,0.8092,0,0,0,0,0,0,0,0.8113,0.8113,0.8115,0.8109,0.8108,0.8105,0.8104,0.811,0.8101,0.8099,0.8098,0.8097,0.8094,0.8095,0.8095,0.8104,0.8091,0.8092,0.8092,0.8092,0.8128,0.8128,0,0,0,0,0,0,0.8115,0.8114,0.8115,0.8115,0.8109,0.8105,0.8104,0.8105,0.81,0.8099,0.8098,0.8096,0.8094,0.8094,0.8095,0.8113,0.8092,0.8092,0.8092,0.8127,0.8128,0.8129,0,0,0,0,0,0,0.8115,0.8115,0.8116,0.8114,0.8114,0.8106,0.8107,0.8105,0.8106,0.8099,0.8098,0.81,0.8094,0.8094,0.8103,0.8112,0.8092,0.8093,0.8126,0.8127,0.8128,0.8148,0,0,0,0,0,0,0.8115,0.8115,0.812,0.8114,0.8114,0.8123,0.8108,0.8106,0.8107,0.8105,0.8101,0.81,0.8093,0.8102,0.8103,0.8113,0.8093,0.8125,0.8127,0.8128,0.8147,0.815,0.8153,0,0,0,0,0,0.8115,0.8125,0.812,0.812,0.8119,0.8123,0.8123,0.8115,0.8107,0.8113,0.8109,0.81,0.8111,0.8103,0.8104,0.8114,0.8125,0.8126,0.8128,0.8145,0.8149,0.8153,0,0,0,0,0,0,0.8132,0.8124,0.8118,0.8127,0.8126,0.812,0.8127,0.8119,0.8121,0.8119,0.8109,0.8109,0.8119,0.8117,0.8109,0.8129,0.8117,0.8118,0.813,0.8133,0.8136,0.8137,0.8093,0,0,0,0,0,0.8137,0.814,0.8133,0.8142,0.8142,0.8134,0.8136,0.813,0.8128,0.8128,0.8125,0.8124,0.8128,0.813,0.8133,0.8146,0.8146,0.8154,0.8157,0.8159,0.8161,0.817,0.8174,0.8134,0.8134,0.8134,0,0,0.8147,0.8143,0.8145,0.8145,0.8144,0.8149,0.8134,0.8139,0.8143,0.8129,0.8137,0.8135,0.8134,0.8146,0.815,0.8144,0.8172,0.8161,0.8163,0.8164,0.8172,0.8176,0.818,0.8135,0.8135,0.8134,0,0,0.8168,0.8164,0.8172,0.8171,0.8169,0.8165,0.8167,0.8162,0.816,0.8169,0.8159,0.8164,0.8169,0.817,0.8171,0.8194,0.8187,0.8196,0.8211,0.822,0.8224,0.8226,0.8237,0.824,0.8197,0.8197,0.8197,0,0.818,0.8186,0.8177,0.8184,0.8185,0.8172,0.8181,0.8181,0.818,0.8182,0.8175,0.8183,0.8181,0.8194,0.82,0.8201,0.8204,0.8196,0.8224,0.8226,0.8229,0.8239,0.8242,0.8199,0.8198,0.8198,0.8198,0,0.8203,0.8208,0.8214,0.8214,0.8216,0.8224,0.8217,0.822,0.8215,0.8211,0.8221,0.8219,0.8222,0.8224,0.8219,0.8237,0.8234,0.8225,0.8213,0.8234,0.8243,0.8247,0.82,0.82,0.8199,0.8199,0,0,0.8234,0.823,0.8233,0.8234,0.8231,0.8235,0.8243,0.8246,0.825,0.825,0.8258,0.8264,0.8257,0.8258,0.8253,0.8261,0.8282,0.8251,0.8251,0.8259,0.8305,0.8312,0.8316,0.8277,0.8278,0.8278,0.8305,0,0.8255,0.8268,0.8261,0.8275,0.828,0.827,0.8277,0.8277,0.8275,0.828,0.8277,0.8282,0.8272,0.8273,0.828,0.8278,0.8291,0.8276,0.8285,0.8286,0.8287,0.8321,0.8328,0.8353,0.8309,0.8309,0.831,0,0.8281,0.8283,0.8298,0.8297,0.8299,0.8305,0.8309,0.8313,0.8314,0.8312,0.8314,0.8308,0.8317,0.8304,0.8318,0.8308,0.8311,0.8311,0.8312,0.8314,0.83,0.8325,0.8361,0.8366,0.8315,0.8314,0.8314,0,0.8305,0.8311,0.8321,0.8322,0.832,0.8326,0.8325,0.8325,0.8329,0.8332,0.8334,0.8339,0.8341,0.8346,0.8341,0.8332,0.8356,0.8343,0.8356,0.8357,0.8362,0.8362,0.8402,0.8363,0.8363,0.8363,0.8362,0,0.833,0.834,0.8332,0.8338,0.835,0.8343,0.8354,0.8353,0.8354,0.8361,0.8352,0.8359,0.8352,0.8359,0.8355,0.8369,0.8369,0.8369,0.8368,0.8371,0.8371,0.8374,0.8372,0.8364,0.8363,0.8363,0.8363,0,0.8358,0.8353,0.8363,0.8362,0.8361,0.837,0.8369,0.8376,0.8373,0.8383,0.8384,0.8381,0.8389,0.8384,0.8392,0.839,0.8408,0.8404,0.8408,0.8407,0.8421,0.8421,0.8465,0.8472,0.8427,0.8427,0.8428,0,0.8374,0.8382,0.8381,0.8385,0.8386,0.8392,0.8396,0.8389,0.8393,0.8396,0.8403,0.841,0.8416,0.8429,0.8428,0.8435,0.8432,0.8447,0.8433,0.8436,0.8434,0.8434,0.8436,0.845,0.845,0.8451,0.8451,0,0.8405,0.8403,0.8408,0.8413,0.8417,0.8421,0.8424,0.8428,0.8422,0.8427,0.8435,0.844,0.8448,0.8456,0.8463,0.8464,0.8457,0.8456,0.846,0.8463,0.8465,0.8466,0.8417,0.8455,0.8454,0.8454,0.8454,0.8454,0.8429,0.8436,0.8438,0.8444,0.8446,0.8449,0.8456,0.8455,0.8461,0.8468,0.8464,0.8474,0.8477,0.8485,0.8487,0.8496,0.849,0.8495,0.8497,0.8498,0.8501,0.8463,0.8497,0.8497,0.8497,0.8496,0.8496,0,0.8461,0.8462,0.8468,0.8473,0.8479,0.8472,0.8475,0.8481,0.849,0.8493,0.8499,0.8509,0.8517,0.8517,0.8525,0.8533,0.853,0.8535,0.8535,0.8536,0.8505,0.8502,0.8537,0.8537,0.8537,0.8537,0.8537,0.8537,0.8479,0.8491,0.8489,0.8503,0.8504,0.8514,0.8517,0.8521,0.8523,0.8535,0.8542,0.8542,0.8545,0.8553,0.8561,0.8561,0.8565,0.8572,0.8571,0.8542,0.8538,0.8534,0.8531,0.8572,0.8572,0.8601,0.8602,0.8602]},{"header":{"parameterUnit":"m.s-1","parameterCategory":1,"la1":30.2991,"la2":30.254,"lo1":-89.0895,"lo2":-89.0444,"dy":0.0017,"dx":0.0017,"nx":28,"ny":28,"refTime":"2025-01-27T03:00:00:Z","depth":0,"parameterNumber":3,"parameterNumberName":"V-component_of_WINDS"},"data":[0,0,0,0,0,0,0,0,0,0,0,0,0,0,0,0,0,0,0,0,0,0,0,0,0,0,0,0,0,0,0,0,0,0,0,0,0,0,0,0,0,0,0,0,0,0,0,0,0,0,0,0,0,0,0,0,0,0,-3.3874,-3.3874,0,-3.3886,-3.3886,-3.3886,-3.3899,-3.3899,-3.3899,-3.39,-3.3909,-3.3909,-3.3909,0,0,0,0,0,0,0,0,0,0,0,0,0,-3.386,-3.386,-3.3874,-3.3874,-3.3874,-3.3886,-3.3886,-3.3886,-3.3899,-3.3899,-3.3899,-3.39,-3.3909,-3.3909,-3.3909,0,0,0,0,0,0,0,0,0,0,0,0,0,-3.3868,-3.386,-3.3874,-3.3882,-3.3883,-3.3886,-3.3886,-3.3886,-3.3899,-3.3899,-3.3899,-3.39,-3.3909,-3.3909,-3.3909,-3.3904,0,0,-3.3909,-3.391,0,0,0,0,0,0,0,0,-3.3868,-3.3869,-3.3881,-3.3881,-3.3882,-3.3891,-3.3885,-3.3892,-3.3899,-3.3893,-3.39,-3.39,-3.3903,-3.3903,-3.3905,-3.3905,-3.3905,-3.3909,-3.391,-3.391,-3.391,0,0,0,0,0,0,0,-3.3867,-3.3868,-3.3878,-3.3881,-3.3882,-3.3884,-3.3886,-3.3886,-3.3896,-3.3893,-3.3894,-3.3896,-3.3903,-3.3905,-3.3905,-3.3905,-3.3909,-3.391,-3.391,-3.391,-3.3902,-3.3902,0,0,0,0,0,0,-3.3866,-3.3868,-3.3878,-3.3879,-3.3876,-3.3884,-3.3886,-3.3888,-3.3896,-3.3897,-3.3895,-3.3896,-3.3904,-3.3905,-3.3906,-3.3901,-3.391,-3.391,-3.391,-3.3903,-3.3902,-3.3902,0,0,0,0,0,0,-3.3865,-3.3867,-3.3878,-3.3874,-3.3875,-3.3884,-3.3886,-3.3888,-3.389,-3.3898,-3.3899,-3.3895,-3.3905,-3.3905,-3.3905,-3.3901,-3.391,-3.391,-3.3903,-3.3902,-3.3902,-3.389,0,0,0,0,0,0,-3.3865,-3.3866,-3.3865,-3.3874,-3.3875,-3.3877,-3.3886,-3.3888,-3.389,-3.3891,-3.3898,-3.3899,-3.3905,-3.3905,-3.3905,-3.3901,-3.391,-3.3903,-3.3903,-3.3902,-3.3891,-3.389,-3.3888,0,0,0,0,0,-3.3864,-3.386,-3.3865,-3.3866,-3.3874,-3.3877,-3.3878,-3.3885,-3.389,-3.3888,-3.3894,-3.3899,-3.3902,-3.3904,-3.3905,-3.3901,-3.3903,-3.3903,-3.3902,-3.3892,-3.389,-3.3888,0,0,0,0,0,0,-3.3849,-3.3861,-3.3866,-3.3865,-3.387,-3.3879,-3.3877,-3.3883,-3.3886,-3.3887,-3.3895,-3.3897,-3.3895,-3.3898,-3.3901,-3.3897,-3.3903,-3.3903,-3.3895,-3.3894,-3.3892,-3.3891,-3.391,0,0,0,0,0,-3.3846,-3.3848,-3.3858,-3.3856,-3.3858,-3.3867,-3.3869,-3.3875,-3.388,-3.3881,-3.3887,-3.3891,-3.3893,-3.3893,-3.3895,-3.3892,-3.3894,-3.389,-3.3889,-3.3888,-3.3887,-3.3886,-3.3884,-3.39,-3.39,-3.39,0,0,-3.3838,-3.3845,-3.3846,-3.3853,-3.3858,-3.3859,-3.3869,-3.387,-3.3871,-3.3881,-3.3881,-3.3885,-3.3891,-3.3889,-3.3888,-3.3891,-3.3883,-3.3887,-3.3886,-3.3885,-3.3885,-3.3883,-3.3882,-3.39,-3.39,-3.39,0,0,-3.3826,-3.3831,-3.3831,-3.3836,-3.3843,-3.3849,-3.3849,-3.3858,-3.3861,-3.3862,-3.387,-3.3871,-3.3874,-3.3878,-3.388,-3.3871,-3.3876,-3.3871,-3.3863,-3.3862,-3.3861,-3.386,-3.3857,-3.3855,-3.387,-3.387,-3.387,0,-3.3815,-3.3819,-3.3829,-3.383,-3.3833,-3.3844,-3.3843,-3.3847,-3.3854,-3.3856,-3.386,-3.3865,-3.3869,-3.3868,-3.3866,-3.3868,-3.3868,-3.387,-3.3861,-3.386,-3.3859,-3.3856,-3.3855,-3.387,-3.387,-3.387,-3.387,0,-3.3806,-3.3808,-3.3806,-3.3815,-3.3818,-3.3817,-3.3827,-3.3829,-3.3835,-3.3841,-3.3842,-3.3848,-3.3851,-3.3852,-3.3857,-3.3852,-3.3854,-3.3859,-3.3865,-3.3857,-3.3854,-3.3853,-3.3869,-3.3869,-3.3869,-3.3869,0,0,-3.3781,-3.3797,-3.3796,-3.3801,-3.3811,-3.3812,-3.3813,-3.3819,-3.382,-3.3825,-3.3825,-3.3829,-3.3834,-3.3837,-3.3842,-3.3842,-3.3834,-3.3847,-3.3847,-3.3844,-3.383,-3.3825,-3.3824,-3.3839,-3.3838,-3.3838,-3.3829,0,-3.377,-3.3773,-3.3783,-3.3783,-3.3785,-3.3797,-3.3798,-3.3804,-3.381,-3.3812,-3.3819,-3.3821,-3.3828,-3.3829,-3.3829,-3.3835,-3.3831,-3.3836,-3.3838,-3.3838,-3.3836,-3.3822,-3.3817,-3.3809,-3.3828,-3.3828,-3.3828,0,-3.3756,-3.3763,-3.3763,-3.3774,-3.3776,-3.3776,-3.3782,-3.3785,-3.3792,-3.3797,-3.3801,-3.3808,-3.3809,-3.3816,-3.3818,-3.3821,-3.3822,-3.3826,-3.3825,-3.3825,-3.3832,-3.3821,-3.3806,-3.3804,-3.3826,-3.3827,-3.3827,0,-3.3739,-3.3747,-3.3748,-3.3752,-3.3765,-3.3765,-3.3771,-3.3778,-3.3781,-3.3787,-3.3789,-3.3794,-3.3796,-3.38,-3.3808,-3.3812,-3.3809,-3.3816,-3.3812,-3.3812,-3.3809,-3.3809,-3.3794,-3.3812,-3.3812,-3.3812,-3.3812,0,-3.3724,-3.3724,-3.3741,-3.3741,-3.3742,-3.3754,-3.3753,-3.376,-3.3767,-3.3769,-3.3779,-3.3781,-3.3792,-3.3795,-3.3801,-3.3802,-3.3803,-3.3806,-3.3808,-3.3805,-3.3804,-3.3805,-3.3806,-3.3812,-3.3812,-3.3812,-3.3812,0,-3.3703,-3.3715,-3.3717,-3.3731,-3.3734,-3.3733,-3.3744,-3.3746,-3.3753,-3.3756,-3.3757,-3.3768,-3.3772,-3.3782,-3.3787,-3.3792,-3.379,-3.3794,-3.3788,-3.3789,-3.3784,-3.3784,-3.3768,-3.3767,-3.3786,-3.3786,-3.3786,0,-3.3693,-3.3693,-3.3707,-3.371,-3.3716,-3.372,-3.3723,-3.3736,-3.3739,-3.3748,-3.3748,-3.3753,-3.3758,-3.3764,-3.3772,-3.3777,-3.378,-3.3774,-3.378,-3.3778,-3.3779,-3.3779,-3.3779,-3.3772,-3.3772,-3.3772,-3.3771,0,-3.3673,-3.3679,-3.3685,-3.3692,-3.3697,-3.3703,-3.371,-3.3712,-3.3726,-3.3729,-3.3734,-3.3738,-3.3745,-3.375,-3.3756,-3.3761,-3.3768,-3.377,-3.3769,-3.3765,-3.3762,-3.3763,-3.3783,-3.377,-3.377,-3.377,-3.377,-3.377,-3.3656,-3.3658,-3.3668,-3.3674,-3.3681,-3.3688,-3.369,-3.3699,-3.3704,-3.3712,-3.3719,-3.3723,-3.3732,-3.3741,-3.3746,-3.3749,-3.3753,-3.3752,-3.3751,-3.3751,-3.3749,-3.3763,-3.375,-3.3751,-3.3751,-3.3751,-3.3751,0,-3.3636,-3.3645,-3.365,-3.3661,-3.3666,-3.3674,-3.3683,-3.3686,-3.369,-3.3698,-3.3704,-3.371,-3.3715,-3.3725,-3.3731,-3.3732,-3.3735,-3.3733,-3.3732,-3.3733,-3.3746,-3.3746,-3.373,-3.373,-3.373,-3.373,-3.373,-3.373,-3.3627,-3.3629,-3.3637,-3.3644,-3.3652,-3.3657,-3.3662,-3.3668,-3.3675,-3.3682,-3.3687,-3.3694,-3.3702,-3.371,-3.3715,-3.3718,-3.3719,-3.3715,-3.3719,-3.373,-3.3732,-3.3734,-3.3734,-3.3716,-3.3716,-3.3706,-3.3706,-3.3706]}]]